TimeEET,TemperatureF,Dew PointF,Humidity,Sea Level PressureIn,VisibilityMPH,Wind Direction,Wind SpeedMPH,Gust SpeedMPH,PrecipitationIn,Events,Conditions,WindDirDegrees,DateUTC
12:50 AM,41.0,35.6,81,29.89,6.2,West,5.8,-,N/A,,Scattered Clouds,280,2013-02-19 22:50:00
2:50 AM,41.0,35.6,81,29.92,6.2,WNW,5.8,-,N/A,,Scattered Clouds,300,2013-02-20 00:50:00
3:50 AM,39.2,35.6,87,29.92,6.2,NW,5.8,-,N/A,,Partly Cloudy,310,2013-02-20 01:50:00
5:20 AM,37.4,35.6,93,29.92,6.2,Calm,Calm,-,N/A,,Partly Cloudy,0,2013-02-20 03:20:00
5:50 AM,37.4,33.8,87,29.95,6.2,Calm,Calm,-,N/A,,Partly Cloudy,0,2013-02-20 03:50:00
6:20 AM,35.6,33.8,93,29.95,6.2,Calm,Calm,-,N/A,,Partly Cloudy,0,2013-02-20 04:20:00
6:50 AM,35.6,33.8,93,29.98,6.2,West,4.6,-,N/A,,Partly Cloudy,270,2013-02-20 04:50:00
7:20 AM,33.8,30.2,87,29.98,6.2,Calm,Calm,-,N/A,,Partly Cloudy,0,2013-02-20 05:20:00
7:50 AM,33.8,32.0,93,30.01,6.2,Calm,Calm,-,N/A,,Partly Cloudy,0,2013-02-20 05:50:00
8:20 AM,37.4,33.8,87,30.01,6.2,SSW,3.5,-,N/A,,Partly Cloudy,210,2013-02-20 06:20:00
8:50 AM,42.8,37.4,81,30.01,6.2,SSW,5.8,-,N/A,,Partly Cloudy,210,2013-02-20 06:50:00
9:20 AM,46.4,39.2,76,30.01,6.2,SSW,4.6,-,N/A,,Partly Cloudy,210,2013-02-20 07:20:00
9:50 AM,48.2,39.2,71,30.04,6.2,Calm,Calm,-,N/A,,Partly Cloudy,0,2013-02-20 07:50:00
10:20 AM,50.0,39.2,66,30.04,6.2,Calm,Calm,-,N/A,,Partly Cloudy,0,2013-02-20 08:20:00
10:50 AM,51.8,39.2,62,30.04,6.2,Calm,Calm,-,N/A,,Partly Cloudy,0,2013-02-20 08:50:00
11:20 AM,51.8,39.2,62,30.04,6.2,ESE,6.9,-,N/A,,Partly Cloudy,110,2013-02-20 09:20:00
11:50 AM,51.8,39.2,62,30.04,6.2,East,11.5,-,N/A,,Partly Cloudy,90,2013-02-20 09:50:00
12:20 PM,51.8,37.4,58,30.04,6.2,East,8.1,-,N/A,,Partly Cloudy,90,2013-02-20 10:20:00
12:50 PM,53.6,39.2,58,30.04,6.2,East,9.2,-,N/A,,Partly Cloudy,80,2013-02-20 10:50:00
1:20 PM,51.8,37.4,58,30.04,6.2,East,9.2,-,N/A,,Partly Cloudy,80,2013-02-20 11:20:00
1:50 PM,53.6,37.4,54,30.01,6.2,East,9.2,-,N/A,,Partly Cloudy,80,2013-02-20 11:50:00
2:20 PM,53.6,37.4,54,30.01,6.2,East,9.2,-,N/A,,Partly Cloudy,100,2013-02-20 12:20:00
2:50 PM,53.6,37.4,54,30.01,6.2,ESE,11.5,-,N/A,,Partly Cloudy,110,2013-02-20 12:50:00
3:20 PM,53.6,39.2,58,30.01,6.2,ESE,11.5,-,N/A,,Partly Cloudy,110,2013-02-20 13:20:00
3:50 PM,53.6,37.4,54,30.01,6.2,East,10.4,-,N/A,,Partly Cloudy,100,2013-02-20 13:50:00
4:20 PM,53.6,37.4,54,30.01,6.2,East,10.4,-,N/A,,Partly Cloudy,100,2013-02-20 14:20:00
4:50 PM,53.6,33.8,47,29.98,6.2,East,8.1,-,N/A,,Partly Cloudy,80,2013-02-20 14:50:00
5:20 PM,53.6,35.6,51,30.01,6.2,East,8.1,-,N/A,,Partly Cloudy,80,2013-02-20 15:20:00
5:50 PM,51.8,37.4,58,30.01,6.2,ESE,5.8,-,N/A,,Partly Cloudy,110,2013-02-20 15:50:00
6:20 PM,53.6,39.2,58,30.01,6.2,ESE,6.9,-,N/A,,Partly Cloudy,110,2013-02-20 16:20:00
6:50 PM,50.0,39.2,66,30.01,6.2,ESE,9.2,-,N/A,,Partly Cloudy,110,2013-02-20 16:50:00
7:20 PM,48.2,39.2,71,30.01,6.2,SE,5.8,-,N/A,,Partly Cloudy,130,2013-02-20 17:20:00
7:50 PM,48.2,39.2,71,30.01,6.2,SE,6.9,-,N/A,,Partly Cloudy,140,2013-02-20 17:50:00
8:50 PM,42.8,37.4,81,30.04,6.2,West,5.8,-,N/A,,Partly Cloudy,270,2013-02-20 18:50:00
9:50 PM,39.2,35.6,87,30.04,6.2,West,5.8,-,N/A,,Partly Cloudy,280,2013-02-20 19:50:00
11:50 PM,39.2,35.6,87,30.06,6.2,West,4.6,-,N/A,,Scattered Clouds,270,2013-02-20 21:50:00